Weather in Bali

Indonesia     8°22′09″S   115°09′57″E
temp.,
°C
wind,
m/s
gust,
m/s
humid.,
%
clouds,
%
prec.,
mm/h
press.,
hPa
HPBL,
m
16 may, mon
mon1623:00+19s119871 0.0 101444
02:00+18s11946 0.0 101234
05:00+17sse119166 0.0 101334
08:00+21sse12757 0.0 1014174
11:00+27ne01525 0.0 10131252
14:00+28nnw015782 0.1 10101455
17:00+22w019390 1.8 1010191
20:00+21s119790 2.4 101374
17 may, tue
tue1723:00+21e009766 0.1 101338
02:00+20n009797 0.3 101226
05:00+19w0098100 0.1 101218
08:00+22ese0090100 0.1 1013145
11:00+27nne115699 0.0 10131205
14:00+24wnw118175 1.3 1010534
17:00+22sw019338 2.9 1011203
20:00+20ssw009782 5.4 101420
18 may, wed
wed1823:00+20sse0096100 0.5 101422
02:00+20s1196100 0.5 101323
05:00+19se119596 0.0 101329
08:00+21ene018799 0.0 1015105
11:00+25nne126794 0.1 10141065
14:00+23n118439 2.6 1012612
17:00+22nnw018960 2.4 1012230
20:00+20sse119797 3.1 101430
19 may, thu
thu1923:00+19s119713 0.1 101524
02:00+19sse11977 0.1 101428
05:00+19sse1196100 0.0 101331
08:00+22ese01858 0.0 1015139
11:00+27nne125953 0.0 10131339
14:00+23s018775 3.6 1011476
17:00+22e019553 3.5 1012215
20:00+20ene119875 5.9 101455
20 may, fri
fri2023:00+19ese119718 2.0 101438
02:00+19sse00977 2.3 101331
05:00+19s119668 0.0 101224
08:00+21sse119095 0.0 1013169
11:00+25ene017272 0.5 1012981
14:00+23ese018771 4.6 1010436
17:00+22ene019494 5.1 1010215
20:00+20se009886 8.3 101334